Regional Weather Roundup
Issued by NWS Wakefield, VA

Home | Current Version | Previous Version | Text Only | Print | Product List | Glossary Off
Versions: 1 2 3 4 5 6 7 8 9 10 11 12 13 14 15 16 17 18 19 20 21 22 23 24 25 26 27 28 29 30 31 32 33 34 35 36 37 38 39 40 41 42 43 44 45 46 47 48 49 50

000
ASUS41 KAKQ 300310
RWRAKQ

REGIONAL WEATHER ROUNDUP
NATIONAL WEATHER SERVICE WAKEFIELD VA
1100 PM EDT FRI AUG 29 2014

Note: "fair" indicates few or no clouds below 12,000 feet with no
significant weather and/or obstructions to visibility. * = Denotes
station may not report precipitation (e.g., rain,snow,etc.),
thunder or fog.

VAZ042-051-052>054-056-300400-
NORTHERN VIRGINIA

CITY           SKY/WX    TMP DP  RH WIND       PRES   REMARKS
WASH NATIONAL  MOCLDY    74  57  55 SE3       30.22R
DULLES         PTCLDY    63  55  75 CALM      30.21R
FORT BELVOIR   PTCLDY    62  58  88 CALM      30.22R
QUANTICO       PTCLDY    72  59  63 CALM      30.22R
FREDERICKSBRG* CLEAR     67  61  80 CALM      30.20S
STAFFORD*      CLEAR     62  62 100 CALM      30.25S
WARRENTON      MOCLDY    64  64 100 CALM      30.21R
CULPEPER*      MOCLDY   N/A N/A N/A CALM      30.21S
MANASSAS*      CLOUDY    66  61  82 CALM      30.21R
LEESBURG*      CLEAR     64  59  82 CALM      30.22S
WINCHESTER     CLOUDY    64  59  82 CALM      30.21R
$$

VAZ048-049-060>072-079>083-300400-
CENTRAL AND SOUTH CENTRAL VIRGINIA...AND NORTH CENTRAL NORTH CAROLINA

CITY           SKY/WX    TMP DP  RH WIND       PRES   REMARKS
RICHMOND       CLOUDY    73  62  68 SE8       30.20S
CHESTERFIELD*  CLOUDY    73  55  53 SE10      30.21S
PETERSBURG*    CLOUDY    73  61  66 E5        30.20S
HANOVER        MOCLDY    68  61  78 CALM      30.22R
TAPPAHANNOCK*  MOCLDY    64  59  83 CALM      30.22R
CHARLOTTSVILLE CLOUDY    69  63  81 CALM      30.20R
ORANGE*        CLOUDY    70  59  68 NE6       30.22S
LOUISA*        MOCLDY    70  61  73 E5        30.20R
FARMVILLE*     CLOUDY    73  72  94 CALM      30.17S
SOUTH HILL*      N/A     75  73  94 CALM      30.24S
ROANOKE RAPIDS PTCLDY    72  66  83 E3        30.19S
RALEIGH        MOCLDY    76  69  79 SE7       30.18R
$$

VAZ088>098-300400-
SOUTHEAST VIRGINIA

CITY           SKY/WX    TMP DP  RH WIND       PRES   REMARKS
NORFOLK        CLOUDY    74  62  66 SE5       30.20S
VIRGINIA BEACH CLOUDY    72  64  76 E6        30.20R
NORFOLK NAVAL  MOCLDY    73  62  68 E5        30.21S
WEST POINT*    PTCLDY    68  61  77 E6        30.22S
NEWPORT NEWS   MOCLDY    71  62  73 E7        30.20S
LANGLEY AFB    PTCLDY    74  62  66 SE3       30.19F
FORT EUSTIS    MOCLDY    72  60  64 SE2       30.18F
WILLIAMSBURG*  CLOUDY    75  64  69 SE6       30.21S
FRANKLIN*      CLOUDY    72  63  73 CALM      30.20S
WAKEFIELD      CLOUDY    73  62  68 E3        30.20S
$$

VAZ020-022-025-037-045-300400-
WESTERN AND SOUTHWEST VIRGINIA

CITY           SKY/WX    TMP DP  RH WIND       PRES   REMARKS
STAUNTON*      CLOUDY    67  61  81 CALM      30.23S
HOT SPRINGS VA CLOUDY    61  61 100 S7        30.33R
LYNCHBURG      CLOUDY    73  69  87 CALM      30.21S
DANVILLE       CLOUDY    76  70  82 CALM      30.19R
MARTINSVILLE   CLEAR     70  70 100 CALM      30.22S FOG
ROANOKE        CLOUDY    74  67  78 SE5       30.22R
BLACKSBURG     PTCLDY    68  68 100 SE5       30.26S
DUBLIN*        MOCLDY    69  69  98 CALM      30.25R
MARION*        MOCLDY   N/A N/A N/A NE3       30.27R
HILLSVILLE*    MOCLDY    67  66  97 S3        30.26R FOG
RICHLANDS*     CLOUDY    76  67  73 SE3       30.22R
WISE*          CLOUDY    70  70 100 S5        30.22S
ABINGDON*      PTCLDY    73  70  92 CALM      30.19S
$$

MDZ021>025-VAZ099-100-300400-
SOUTHERN MARYLAND AND THE DELMARVA PENINSULA

CITY           SKY/WX    TMP DP  RH WIND       PRES   REMARKS
PATUXENT RIVER MOCLDY    71  62  73 SE12      30.21R
BAY BRIDGE APT   N/A     68  59  73 SE9       30.23R
LEONARDTOWN    CLEAR     68  61  77 SE3       30.23S
DOVER          CLEAR     67  61  83 E7        30.21R
GEORGETOWN     CLEAR     64  60  87 E9        30.23R
EASTON         CLEAR     66  62  85 CALM      30.26S
CAMBRIDGE      CLEAR     64  59  82 CALM      30.22S
SALISBURY      CLEAR     64  59  83 CALM      30.23R
OCEAN CITY     CLEAR     70  59  68 SE6       30.22R
WALLOPS ISLAND CLEAR     68  59  73 E5        30.23R
ACCOMACK*      CLEAR     61  57  88 CALM      30.22S
$$

NCZ012>017-030>032-300400-
EASTERN NORTH CAROLINA

CITY           SKY/WX    TMP DP  RH WIND       PRES   REMARKS
ELIZABETH CITY CLOUDY    74  65  73 E6        30.19S
AHOSKIE*       PTCLDY    71  65  83 CALM      30.19S
EDENTON*       CLOUDY    75  67  78 E5        30.18S
CURRITUCK*     CLOUDY    75  62  64 E3        30.20S
KILL DEVIL HLS CLOUDY    75  65  70 E7        30.18R
MANTEO         CLOUDY    75  65  72 E9        30.19R
CAPE HATTERAS  LGT RAIN  77  74  90 E9        30.16S
GOLDSBORO      CLEAR     75  74  98 E6        30.15R
WASHINGTON     MOCLDY    72  68  86 CALM      30.18S
GREENVILLE     CLEAR     72  68  88 NE3       30.19S
NEW BERN       PTCLDY    77  71  82 NE6       30.18R
WILMINGTON     CLEAR     75  71  87 CALM      30.15R
$$

VAZ048-300400-
ELSEWHERE

CITY           SKY/WX    TMP DP  RH WIND       PRES   REMARKS
HARRISBURG PA  PTCLDY    66  54  65 E5        30.21R
BALTIMORE      PTCLDY    66  58  75 E3        30.22R
ANNAPOLIS      CLEAR     72  63  73 SE15      30.22R
ANDREWS AFB    PTCLDY    64  59  82 E7        30.22R
WILMINGTON DE  CLEAR     68  59  73 SE9       30.24R
PHILADELPHIA   PTCLDY    67  58  72 SE6       30.24R
WILDWOOD NJ*   CLEAR     63  55  77 CALM      30.24S
ATLANTIC CITY  CLEAR     58  56  93 CALM      30.24S
HENDERSON NC   CLOUDY    74  69  83 SE3       30.19S
GREENSBORO     CLOUDY    74  71  91 E5        30.18S
ROCKY MOUNT    CLOUDY    74  68  81 VRB6      30.18R
FAYETTEVILLE   MOCLDY    80  71  74 S5        30.15R
CHARLOTTE      PTCLDY    79  70  74 E7        30.16R
$$

VAZ100-300400-
MARINE

STATION/POSITION TIME  TEMP    WIND        PRES    WAVE   SWELL
                       AIR SEA DIR/SP/G            HT/PER HT/PER
                 (UTC) (F)     (DEG/KT/KT) (MB)    (FT/S) (FT/S)
44066 TX TWR #4  0300   70 72  110/ 12/ 14 1023.7R   4/ 8   3/ 8
CAPE MAY NJ      0300   67 79  130/  1/  2 1023.3R
LEWES DE         0300   71 77  120/  6/  8 1023.4R
15NM E FENWICK I 0300   72 73              1023.1R   3/ 8
OCEAN-CITY-INLET 0300      76  110/  5/  7 1023.0S
WACHAPREAGUE VA  0300   72 80  110/  3/  5 1023.1R
THOMAS POINT MD  0300   71 77  140/ 14/ 17 1024.2R
GOOSES REEF MD   0300   72     150/ 14/ 16 1023.5R
COVE POINT MD    0300   72     160/ 14/ 18 1023.1R
SOLOMONS ISLAND  0300      80                N/A
BISHOPS HEAD MD  0300   72 78  120/ 11/ 13 1022.8S
PINEY POINT MD   0300          150/ 15/ 16   N/A
POTOMAC MD       0300   74     140/ 12/ 14 1022.4S
CAMBRIDGE MD     0300   67 78  130/  2/  5 1023.2S
LEWISETTA VA     0300   72 79  140/  7/  9 1022.6F
RAPPAHANNOCK LGT 0300          100/  9/ 11 1023.5S
STINGRAY PT      0300   74     120/ 12/ 14   N/A
YORK RVR RNG VA  0300   75     140/ 12/ 14 1022.1F
YORKTOWN VA      0300   74 80  130/  5/  7 1022.3F
JAMESTOWN VA     0300   74     140/ 10/ 14   N/A
DOMINION TERM VA 0300   75     100/ 10/ 13 1022.6F
KIPTOPEKE VA     0300      81  120/  5/  7   N/A
CHES BAY BRIDGE  0300      78  100/  6/  9 1022.2S
CAPE HENRY VA    0300   74     110/ 10/ 11 1021.6S
CHESAPEAKE LGHT  0200   74     100/ 11/ 12 1023.2R
WILLOUBY STN VA  0300   74     110/  6/  7 1021.4F
S CRANEY ISL VA  0300           90/  6/  7 1022.2F
CAPE HENRY BUOY  0300      77                N/A     3/ 8
1ST LANDING BUOY 0300   76     110/ 10/ 12 1022.3S
CAPE CHARLES BUO 0300      76                N/A     2/ 9   2/ 9
OFFSHORE WE BUOY 0300      75                N/A     3/ 8   2/ 8
64NM E OF VA BCH 0300   75 76  100/  8/ 10 1022.1S   3/ 8   2/ 8
DUCK PIER NC     0300   76 78   80/ 12/ 13 1021.7R
44056 DUCK FRF   0300                        N/A     3/ 8
OREGON INLET NC  0300   76 79   60/  9/ 13 1021.8R
HATTERAS NC      0300      82  110/  7/ 11 1021.7S
DIAMOND SHLS NC  0300   79      50/  6/  8 1021.1R   4/ 8   3/ 8
CAPE LOOKOUT NC  0200   80      70/  3/  3 1020.8R
$$



USA.gov is the U.S. government's official web portal to all federal, state and local government web resources and services.